Location: Appeville
(49.3218°N, 1.3427°W)
Time: 11:49:10
(UTC+00:00)

SAR-Lupe-2 - Pass Details

Date: 08 December 2019
Orbit: 482 x 484 km, 98.1° (Epoch: 21 January)

Event Time Altitude Azimuth Distance (km) Brightness Sun altitude
Rises 06:54:53 0° 168° (SSE) 2,539 7.8 -8.2°
Reaches altitude 10° 06:56:56 10° 170° (S) 1,664 6.8 -7.9°
Maximum altitude 07:00:31 76° 257° (WSW) 507 3.5 -7.4°
Drops below altitude 10° 07:04:07 10° 343° (NNW) 1,678 5.9 -6.8°
Sets 07:06:12 0° 345° (NNW) 2,564 6.8 -6.5°
